Flight Track Log - Related Links

Times and Time Zones

All times are in EDT time to prevent confusion due to time zone crossing. See the VOZ960 flight status page for this flight to view local times or setup timezone preferences in your user account.

Time Position Orientation Groundspeed Altitude Reporting Facility
EDT Latitude Longitude Course Direction KTS MPH feet Rate Location/Type
01:40AM -27.3892 153.1260 27° Northeast 110 127  Level FlightAware ADS-B
01:41AM -27.3784 153.1324 28° Northeast 141 162 500 1,800 Climbing FlightAware ADS-B
01:41AM -27.3660 153.1393 169° South 3,100 2,100 Climbing Aus ATC (Calculated)
01:41AM -27.3663 153.1394 28° Northeast 148 170 1,200 -3,643 Descending FlightAware ADS-B
01:41AM -27.3601 153.1438 32° Northeast 162 186 1,400 1,200 Climbing FlightAware ADS-B
01:41AM -27.3478 153.1564 42° Northeast 205 236 1,800 1,500 Climbing FlightAware ADS-B
01:42AM -27.3323 153.1721 42° Northeast 232 267 2,400 2,550 Climbing FlightAware ADS-B
01:42AM -27.3189 153.1914 52° Northeast 238 274 3,500 3,000 Climbing FlightAware ADS-B
01:42AM -27.3169 153.2029 79° East 247 284 3,900 2,700 Climbing FlightAware ADS-B
01:42AM -27.3186 153.2157 99° East 250 288 4,400 3,158 Climbing FlightAware ADS-B
01:43AM -27.3239 153.2266 119° Southeast 249 287 4,900 3,300 Climbing FlightAware ADS-B
01:43AM -27.3332 153.2357 139° Southeast 247 284 5,500 2,571 Climbing FlightAware ADS-B
01:43AM -27.3433 153.2406 157° South 253 291 5,800 1,800 Climbing FlightAware ADS-B
01:43AM -27.3547 153.2416 175° South 258 297 6,100 2,100 Climbing FlightAware ADS-B
01:43AM -27.3660 153.2388 193° South 267 307 6,500 2,000 Climbing FlightAware ADS-B
01:44AM -27.3910 153.2295 198° South 292 336 7,100 2,250 Climbing FlightAware ADS-B
01:44AM -27.4180 153.2183 200° South 307 353 8,000 2,850 Climbing FlightAware ADS-B
01:44AM -27.4440 153.2071 201° Southwest 313 360 9,000 3,224 Climbing FlightAware ADS-B
01:45AM -27.5101 153.1783 201° Southwest 314 361 11,600 3,429 Climbing FlightAware ADS-B
01:46AM -27.5517 153.1602 201° Southwest 318 366 13,400 3,450 Climbing FlightAware ADS-B
01:46AM -27.5654 153.1512 210° Southwest 319 367 13,900 3,310 Climbing FlightAware ADS-B
01:46AM -27.5875 153.1301 220° Southwest 327 376 15,000 3,240 Climbing FlightAware ADS-B
01:47AM -27.6246 153.0958 219° Southwest 337 388 16,600 3,059 Climbing FlightAware ADS-B
01:47AM -27.6529 153.0763 211° Southwest 357 411 17,600 3,120 Climbing FlightAware ADS-B
01:47AM -27.6992 153.0573 200° South 351 404 19,200 2,951 Climbing FlightAware ADS-B
01:48AM -27.7468 153.0368 201° Southwest 366 421 20,600 2,459 Climbing FlightAware ADS-B
01:48AM -27.7955 153.0161 201° Southwest 377 434 21,700 2,323 Climbing FlightAware ADS-B
01:49AM -27.8487 152.9937 200° South 387 445 23,000 2,400 Climbing FlightAware ADS-B
01:49AM -27.8546 152.9912 200° South 382 440 23,100 2,368 Climbing FlightAware ADS-B
01:50AM -27.9129 152.9669 200° South 394 453 24,500 2,418 Climbing FlightAware ADS-B
01:50AM -27.9673 152.9442 200° South 398 458 25,800 2,226 Climbing FlightAware ADS-B
01:51AM -28.0203 152.9220 200° South 403 464 26,800 2,100 Climbing FlightAware ADS-B
01:51AM -28.0722 152.9003 200° South 409 471 27,900 2,000 Climbing FlightAware ADS-B
01:52AM -28.1258 152.8777 200° South 412 474 28,800 1,800 Climbing FlightAware ADS-B
01:52AM -28.1805 152.8546 200° South 420 483 29,700 1,700 Climbing FlightAware ADS-B
01:53AM -28.2359 152.8313 200° South 425 489 30,500 1,700 Climbing FlightAware ADS-B
01:53AM -28.2921 152.8076 200° South 426 490 31,400 2,000 Climbing FlightAware ADS-B
01:54AM -28.3471 152.7844 200° South 421 484 32,500 2,000 Climbing FlightAware ADS-B
01:54AM -28.4014 152.7614 200° South 418 481 33,400 1,800 Climbing FlightAware ADS-B
01:55AM -28.4562 152.7380 201° Southwest 418 481 34,300 1,600 Climbing FlightAware ADS-B
01:55AM -28.5100 152.7152 200° South 420 483 35,000 1,500 Climbing FlightAware ADS-B
01:56AM -28.5622 152.6929 201° Southwest 418 481 35,800 1,600 Climbing FlightAware ADS-B
01:56AM -28.6169 152.6697 200° South 416 479 36,600 1,500 Climbing FlightAware ADS-B
01:57AM -28.6712 152.6466 200° South 413 475 37,300 1,500 Climbing FlightAware ADS-B
01:57AM -28.7262 152.6234 200° South 409 471 38,100 1,300 Climbing FlightAware ADS-B
01:58AM -28.7795 152.6008 200° South 407 468 38,600 1,000 Climbing FlightAware ADS-B
01:58AM -28.8320 152.5784 200° South 407 468 39,100 900 Climbing FlightAware ADS-B
01:59AM -28.8847 152.5557 201° Southwest 412 474 39,500 800 Climbing FlightAware ADS-B
01:59AM -28.9358 152.5338 201° Southwest 413 475 39,900 652 Climbing FlightAware ADS-B
01:59AM -28.9681 152.5200 200° South 414 476 40,000 120 Climbing FlightAware ADS-B
01:00AM -29.0289 152.4941 200° South 415 478 40,000  Level FlightAware ADS-B
01:00AM -29.0827 152.4711 200° South 413 475 40,000  Level FlightAware ADS-B
01:01AM -29.1352 152.4487 200° South 412 474 40,000  Level FlightAware ADS-B
01:01AM -29.1884 152.4259 201° Southwest 412 474 40,000  Level FlightAware ADS-B
01:02AM -29.2437 152.4020 201° Southwest 411 473 40,000  Level FlightAware ADS-B
01:02AM -29.2961 152.3794 201° Southwest 410 472 40,000  Level FlightAware ADS-B
01:03AM -29.3649 152.3498 201° Southwest 409 471 40,000  Level FlightAware ADS-B
01:04AM -29.4201 152.3260 201° Southwest 410 472 40,000  Level FlightAware ADS-B
01:04AM -29.4740 152.3024 201° Southwest 410 472 40,000  Level FlightAware ADS-B
01:05AM -29.5261 152.2785 202° Southwest 409 471 40,000  Level FlightAware ADS-B
01:05AM -29.5784 152.2544 202° Southwest 407 468 40,000  Level FlightAware ADS-B
01:06AM -29.6312 152.2302 202° Southwest 407 468 40,000  Level FlightAware ADS-B
01:06AM -29.7021 152.1978 202° Southwest 407 468 40,000  Level FlightAware ADS-B
01:07AM -29.7540 152.1740 202° Southwest 405 466 40,000  Level FlightAware ADS-B
01:07AM -29.8062 152.1501 202° Southwest 405 466 40,000  Level FlightAware ADS-B
01:08AM -29.8566 152.1270 202° Southwest 404 465 40,000  Level FlightAware ADS-B
01:08AM -29.9227 152.0966 202° Southwest 401 461 40,000  Level FlightAware ADS-B
01:09AM -29.9766 152.0718 202° Southwest 401 461 40,000 -80 Level FlightAware ADS-B
01:10AM -30.0529 152.0351 202° Southwest 399 459 39,900 -53 Descending Aus ATC (RADAR)
01:11AM -30.1741 151.9795 202° Southwest 401 461 39,900 62 Level Aus ATC (RADAR)
01:11AM -30.2211 151.9590 202° Southwest 402 463 40,000  Climbing FlightAware ADS-B
01:12AM -30.2773 151.9312 202° Southwest 401 461 39,900 -88 Descending Aus ATC (RADAR)
01:12AM -30.3377 151.9038 201° Southwest 401 461 39,900 109 Level Aus ATC (RADAR)
01:13AM -30.3470 151.9020 202° Southwest 402 463 40,000  Climbing FlightAware
01:13AM -30.3980 151.8760 202° Southwest 401 461 39,900 -120 Descending Aus ATC (RADAR)
01:14AM -30.4582 151.8480 202° Southwest 401 461 39,900 130 Level Aus ATC (RADAR)
01:14AM -30.4370 151.8620 202° Southwest 402 463 40,000 150 Climbing FlightAware
01:14AM -30.5273 151.8161 202° Southwest 400 460 40,000  Level Aus ATC (RADAR)
01:15AM -30.5270 151.8220 202° Southwest 402 463 40,000  Level FlightAware
01:15AM -30.5876 151.7881 202° Southwest 402 463 40,000 -103 Level Aus ATC (RADAR)
01:16AM -30.6821 151.7427 202° Southwest 403 464 39,900  Descending Aus ATC (RADAR)
01:16AM -30.7002 151.7352 202° Southwest 404 465 40,000 120 Climbing FlightAware ADS-B
01:17AM -30.7704 151.7024 202° Southwest 405 466 40,000  Level FlightAware ADS-B
01:17AM -30.8160 151.6810 202° Southwest 398 458 40,000 -111 Level FlightAware
01:17AM -30.8648 151.6581 202° Southwest 407 468 39,900 -103 Descending Aus ATC (RADAR)
01:18AM -30.9257 151.6296 202° Southwest 406 467 39,900 154 Level Aus ATC (RADAR)
01:18AM -30.9290 151.6290 202° Southwest 398 458 40,000 250 Climbing FlightAware
01:18AM -30.9650 151.6120 202° Southwest 397 457 40,000 -146 Level FlightAware
01:19AM -31.0039 151.5934 202° Southwest 404 465 39,900  Descending Aus ATC (RADAR)
01:19AM -31.0330 151.5800 202° Southwest 403 464 40,000 240 Climbing FlightAware
01:19AM -31.0471 151.5725 202° Southwest 404 465 40,000  Level Aus ATC (RADAR)
01:20AM -31.1078 151.5443 202° Southwest 403 464 40,000  Level Aus ATC (RADAR)
01:20AM -31.1370 151.5310 202° Southwest 397 457 40,000  Level FlightAware
01:21AM -31.1800 151.5100 202° Southwest 397 457 40,000 -143 Level FlightAware
01:21AM -31.2116 151.4946 202° Southwest 406 467 39,900 -146 Descending Aus ATC (RADAR)
01:21AM -31.2553 151.4743 202° Southwest 406 467 39,900 125 Level Aus ATC (RADAR)
01:22AM -31.2930 151.4570 202° Southwest 398 458 40,000  Climbing FlightAware
01:22AM -31.3162 151.4454 202° Southwest 406 467 39,900 -115 Descending Aus ATC (RADAR)
01:22AM -31.3852 151.4125 202° Southwest 404 465 39,900 72 Level Aus ATC (RADAR)
01:23AM -31.4602 151.3793 202° Southwest 399 459 40,000 76 Climbing FlightAware ADS-B
01:24AM -31.5190 151.3530 202° Southwest 398 458 40,000  Level FlightAware
01:24AM -31.5384 151.3444 202° Southwest 395 455 40,000  Level Aus ATC (RADAR)
01:24AM -31.5720 151.3300 202° Southwest 397 457 40,000  Level FlightAware
01:24AM -31.5812 151.3251 202° Southwest 393 452 40,000  Level Aus ATC (RADAR)
01:25AM -31.6412 151.2980 202° Southwest 394 453 40,000  Level Aus ATC (RADAR)
01:25AM -31.6772 151.2821 202° Southwest 398 458 40,000  Level FlightAware ADS-B
01:26AM -31.7527 151.2479 202° Southwest 393 452 40,000  Level Aus ATC (RADAR)
01:26AM -31.7550 151.2473 202° Southwest 396 456 40,000  Level FlightAware ADS-B
01:27AM -31.8062 151.2244 201° Southwest 395 455 40,000  Level FlightAware ADS-B
01:27AM -31.8673 151.1969 201° Southwest 392 451 40,000  Level FlightAware ADS-B
01:28AM -31.9325 151.1675 201° Southwest 387 445 40,000  Level Aus ATC (RADAR)
01:28AM -31.9513 151.1594 201° Southwest 386 444 40,000 -1,667 Level FlightAware ADS-B
01:29AM -32.0227 151.1270 201° Southwest 391 450 38,500 -2,595 Descending FlightAware ADS-B
01:29AM -32.0704 151.1053 201° Southwest 403 464 36,800 -3,225 Descending FlightAware ADS-B
01:30AM -32.1583 151.0657 201° Southwest 412 474 34,200 -3,122 Descending FlightAware ADS-B
01:31AM -32.2430 151.0277 201° Southwest 415 478 31,700 -2,929 Descending FlightAware ADS-B
01:31AM -32.3123 150.9967 201° Southwest 409 471 30,100 -2,455 Descending FlightAware ADS-B
01:32AM -32.3502 150.9794 201° Southwest 401 461 29,000 -2,031 Descending FlightAware ADS-B
01:33AM -32.3691 150.9709 201° Southwest 389 448 27,900 -1,364 Descending FlightAware ADS-B
01:33AM -32.4753 150.9233 201° Southwest 358 412 27,500 -947 Descending FlightAware ADS-B
01:33AM -32.4753 150.9233 201° Southwest 356 410 27,300 -1,455 Descending FlightAware ADS-B
01:34AM -32.5308 150.9181 185° South 363 418 26,700 -1,433 Descending FlightAware ADS-B
01:34AM -32.5952 150.9296 171° South 353 406 25,700 -1,275 Descending FlightAware ADS-B
01:35AM -32.6345 150.9366 171° South 346 398 25,000 -600 Descending FlightAware ADS-B
01:35AM -32.7028 150.9488 171° South 307 353 25,000  Level FlightAware ADS-B
01:36AM -32.7352 150.9544 172° South 296 341 25,000  Level FlightAware ADS-B
01:36AM -32.7819 150.9625 172° South 296 341 25,000  Level FlightAware ADS-B
01:37AM -32.8086 150.9710 165° South 316 364 25,000  Level FlightAware ADS-B
01:37AM -32.8230 150.9826 146° Southeast 328 377 25,000  Level FlightAware ADS-B
01:37AM -32.8230 150.9826 146° Southeast 341 392 25,000  Level FlightAware ADS-B
01:37AM -32.8435 151.0232 121° Southeast 352 405 25,000  Level FlightAware ADS-B
01:37AM -32.8451 151.0345 100° East 362 417 25,000  Level FlightAware ADS-B
01:38AM -32.8453 151.0460 91° East 367 422 25,000  Level FlightAware ADS-B
01:38AM -32.8426 151.0652 80° East 367 422 25,000  Level FlightAware ADS-B
01:38AM -32.8329 151.0889 64° Northeast 361 415 25,000  Level FlightAware ADS-B
01:38AM -32.8209 151.1043 47° Northeast 352 405 25,000  Level FlightAware ADS-B
01:38AM -32.8077 151.1144 33° Northeast 340 391 25,000  Level FlightAware ADS-B
01:38AM -32.8007 151.1180 23° Northeast 327 376 25,000  Level FlightAware ADS-B
01:39AM -32.7812 151.1227 11° North 315 362 25,000  Level FlightAware ADS-B
01:39AM -32.7681 151.1220 358° North 306 352 25,000  Level FlightAware ADS-B
01:39AM -32.7279 151.1143 351° North 343 395 25,000  Level FlightAware ADS-B
01:40AM -32.6491 151.0996 351° North 367 422 25,000  Level FlightAware ADS-B
01:41AM -32.5904 151.0809 345° North 348 400 25,000  Level FlightAware ADS-B
01:41AM -32.5821 151.0733 322° Northwest 337 388 25,000  Level FlightAware ADS-B
01:41AM -32.5744 151.0635 313° West 328 377 25,000  Level FlightAware ADS-B
01:41AM -32.5624 151.0296 293° West 348 400 25,000  Level FlightAware ADS-B
01:41AM -32.5626 151.0315 97° East 313 360 25,000  Level FlightAware ADS-B
01:42AM -32.5656 150.9674 267° West 311 358 25,000  Level FlightAware ADS-B
01:42AM -32.5706 150.9005 265° West 312 359 25,000  Level FlightAware ADS-B
01:43AM -32.5762 150.8315 265° West 309 356 25,000  Level Aus ATC (RADAR)
01:43AM -32.5760 150.8291 265° West 312 359 25,000  Level FlightAware ADS-B
01:43AM -32.5775 150.8105 265° West 312 359 25,000  Level FlightAware ADS-B
01:44AM -32.5808 150.7725 264° West 312 359 25,000  Level FlightAware ADS-B
01:44AM -32.6094 150.7241 264° West 318 366 25,000  Level Aus ATC (RADAR)
01:44AM -32.6222 150.7193 264° West 331 381 25,000  Level FlightAware ADS-B
01:45AM -32.6667 150.7033 197° South 333 383 25,000  Level FlightAware ADS-B
01:45AM -32.7129 150.6868 197° South 331 381 25,000  Level Aus ATC (RADAR)
01:46AM -32.7296 150.6807 197° South 333 383 25,000 -360 Level FlightAware ADS-B
01:46AM -32.7869 150.6601 197° South 332 382 24,700 -986 Descending FlightAware ADS-B
01:47AM -32.8374 150.6424 197° South 323 372 23,800 -1,592 Descending Aus ATC (RADAR)
01:47AM -32.8582 150.6349 197° South 321 369 23,400 -1,765 Descending FlightAware ADS-B
01:47AM -32.8861 150.6314 186° South 325 374 22,800 -1,610 Descending FlightAware ADS-B
01:48AM -32.9179 150.6411 166° South 338 389 22,300 -1,688 Descending FlightAware ADS-B
01:48AM -32.9309 150.6509 148° Southeast 349 402 21,900 -2,160 Descending FlightAware ADS-B
01:49AM -32.9727 150.7026 134° Southeast 351 404 20,500 -2,278 Descending FlightAware ADS-B
01:49AM -33.0057 150.7453 133° Southeast 354 407 18,900 -2,435 Descending FlightAware ADS-B
01:50AM -33.0531 150.8069 133° Southeast 354 407 17,700 -2,273 Descending FlightAware ADS-B
01:50AM -33.0932 150.8595 132° Southeast 352 405 16,400 -1,800 Descending FlightAware ADS-B
01:51AM -33.1287 150.9050 133° Southeast 339 390 15,600 -1,421 Descending FlightAware ADS-B
01:51AM -33.1340 150.9118 133° Southeast 338 389 15,500 -1,756 Descending FlightAware ADS-B
01:52AM -33.1761 150.9541 140° Southeast 319 367 14,400 -1,870 Descending FlightAware ADS-B
01:52AM -33.2237 150.9957 144° Southeast 314 361 13,100 -1,920 Descending FlightAware ADS-B
01:52AM -33.2363 151.0037 152° Southeast 308 354 12,800 -1,600 Descending FlightAware ADS-B
01:53AM -33.2613 151.0130 163° South 298 343 12,300 -1,500 Descending FlightAware ADS-B
01:53AM -33.2896 151.0202 168° South 297 342 11,800 -1,900 Descending FlightAware ADS-B
01:54AM -33.3431 151.0339 168° South 299 344 10,400 -2,400 Descending FlightAware ADS-B
01:54AM -33.3708 151.0410 168° South 317 365 9,400 -2,250 Descending FlightAware ADS-B
01:54AM -33.3945 151.0470 168° South 317 365 8,900 -1,500 Descending FlightAware ADS-B
01:55AM -33.4266 151.0554 168° South 318 366 8,400 -1,500 Descending FlightAware ADS-B
01:55AM -33.4535 151.0621 168° South 318 366 7,900 -1,650 Descending FlightAware ADS-B
01:55AM -33.4776 151.0682 168° South 312 359 7,300 -1,650 Descending FlightAware ADS-B
01:56AM -33.5134 151.0773 168° South 309 356 6,800 -1,105 Descending FlightAware ADS-B
01:56AM -33.5393 151.0839 168° South 296 341 6,600 -750 Descending FlightAware ADS-B
01:56AM -33.5677 151.0913 168° South 285 328 6,300 -1,077 Descending FlightAware ADS-B
01:57AM -33.5883 151.0964 168° South 277 319 5,900 -1,231 Descending FlightAware ADS-B
01:57AM -33.6162 151.1033 168° South 276 318 5,500 -1,200 Descending FlightAware ADS-B
01:57AM -33.6353 151.1081 168° South 274 315 5,100 -1,077 Descending FlightAware ADS-B
01:58AM -33.6634 151.1153 168° South 265 305 4,800 -714 Descending FlightAware ADS-B
01:58AM -33.6895 151.1215 169° South 251 289 4,600 -439 Descending FlightAware ADS-B
01:58AM -33.7112 151.1262 170° South 239 275 4,500 -655 Descending FlightAware ADS-B
01:59AM -33.7470 151.1356 168° South 222 255 4,000 -889 Descending FlightAware ADS-B
01:59AM -33.7658 151.1410 167° South 209 241 3,700 -1,059 Descending FlightAware ADS-B
02:00AM -33.7780 151.1441 168° South 197 227 3,400 -1,000 Descending FlightAware ADS-B
02:00AM -33.7937 151.1478 169° South 187 215 3,200 -1,000 Descending FlightAware ADS-B
02:00AM -33.7980 151.1489 168° South 178 205 2,900 -968 Descending FlightAware ADS-B
02:00AM -33.8183 151.1542 168° South 165 190 2,700 -909 Descending FlightAware ADS-B
02:01AM -33.8301 151.1574 167° South 165 190 2,400 -973 Descending FlightAware ADS-B
02:01AM -33.8445 151.1611 168° South 161 185 2,100 -789 Descending FlightAware ADS-B
02:01AM -33.8581 151.1645 168° South 155 178 1,900 -789 Descending FlightAware ADS-B
02:02AM -33.8702 151.1676 168° South 136 157 1,600 -732 Descending FlightAware ADS-B
02:02AM -33.8834 151.1711 168° South 124 143 1,400 -649 Descending FlightAware ADS-B
02:02AM -33.8920 151.1734 168° South 118 136 1,200 -581 Descending FlightAware ADS-B
02:02AM -33.9001 151.1755 168° South 118 136 1,100 -545 Descending FlightAware ADS-B
02:03AM -33.9006 151.1756 169° South 119 137 1,000 -720 Descending FlightAware ADS-B
02:03AM -33.9131 151.1788 168° South 118 136 800 -545 Descending FlightAware ADS-B
02:03AM -33.9219 151.1811 168° South 119 137 700 -706 Descending FlightAware ADS-B
02:03AM -33.9319 151.1836 168° South 118 136 400 -706 Descending FlightAware ADS-B
02:04AM -33.9501 151.1886 168° South 118 136 100 -563 Descending Aus ATC (RADAR)
02:04AM -33.9590 151.1910 168° South 98 113 -286 Descending FlightAware

Login

Don't have an account? Register now (free) for customized features, flight alerts, and more!